Tracking 27112 objects as of 27-Mar-2023
HD Live streaming from Space Station
objects crossing your sky now

SL-12 R/B(2)

Track SL-12 R/B(2) now!


NORAD ID: 24897
Int'l Code: 1997-041D
Perigee: 34,359.3 km
Apogee: 37,371.9 km
Inclination: 14.4 °
Period: 1,439.8 minutes
Semi major axis: 42236 km
RCS: 1 m2 (large)
Launch date: August 14, 1997
Source: Commonwealth of Independent States (former USSR) (CIS)
Launch site: TYURATAM MISSILE AND SPACE COMPLEX (TTMTR)

Note: This is a ROCKET BODY
Your satellite tracking list
Your tracking list is empty




NASA's NSSDC Master Catalog

Two Line Element Set (TLE):
1 24897U 97041D   23084.10813547 -.00000252  00000-0  00000-0 0  9997
2 24897  14.4018   6.9689 0356638 272.6258 286.7625  1.00016114 93553
Source of the keplerian elements: AFSPC